Погода в Сунтаре

Погода в Сунтаре : погода сейчас, прогноз погоды и архив. Всё, что Вы хотите узнать о погоде в Сунтаре!

Хотите узнать прогноз погоды в Сунтаре? Тогда Вам сюда: Погода в Сунтаре

Поиск расширенной информации на нашем сайте:

Другие новости

Новости СМИ2

Главная страница сайта

Новости сайта

03.07.2017

Напоминаем, что на нашем специализированном сайте Метеоцентр.Азия вы можете получить высокодетализированные автоматические прогнозы погоды по пунктам России, СНГ и мира в авиационном формате (включающие направление и скорость ветра, видимость, явления погоды, количество и форму облачности, нижнюю и верхнюю границу облачности).

Рекомендуем: офисные блоки на выгодных условиях снять офис в бц K2 в Румянцево описание помещений на сайте

Погода в Сунтаре - сегодня

Время (UTC), дата Ветер
(°,м/с) 
Видим.   Явления Облачность Т
(°С)
Тd
(°С)
f(%) Тe
(°С)
Pmin
(гПа)
dP
(гПа)
Po
(мм)
O2
(г/м3)
Тmin Tmax R s Состояние
почвы
03 16.04.18 280 (З) 20000 м    1/1 1000 м 
[Cu hum]
+2.2 -5.7 56 +2  1008.1  0.5  743  298           
06 16.04.18 320 (СЗ) 20000 м    3/3 1000 м 
[Cu hum]
+3.3 -7.9 44 +1  1007.8  -0.3  743  297           
09 16.04.18 010 (С) 20000 м    5/4 600 м кучево-дожд., верхняя 
[Cb cap|Ci fib]
+4.2 -8.8 38 +5  1007.3  -0.4  743  296           
15 16.04.18 150 (ЮВ) 20000 м    3/0 верхняя 
[Ci fib]
-4.8 -7.6 81 -4  1008  743  305           
18 16.04.18 180 (Ю) 20000 м    ясно 
-7.1 -9.6 82 -7  1007.7  -0.4  743  308           
21 16.04.18 тихо ()   20000 м    3/0 верхняя 
[Ci fib]
-7.6 -10.7 78 -8  1008  0.3  743  309           
00 17.04.18 170 (Ю) 20000 м    10/0 средняя, верхняя 
[Ac trans|Cs]
-1.7 -7 67 -1  1007.5  -0.1  743  302  -8.1      17  равномерный
мокрый или
старый снег
100% 
03 17.04.18 170 (Ю) 20000 м    5/3 600 м верхняя 
[Cu hum|Ci fib]
+3.9 -4.5 54 +3  1006.7  -0.5  742  295           
06 17.04.18 230 (ЮЗ) 20000 м    10/6 600 м кучево-дожд., верхняя 
[Cb cap|Ci fib]
+5.5 -8.9 35 +5  1005.6  -1  742  294           
09 17.04.18 210 (ЮЗ) 20000 м    6/3 1000 м верхняя 
[Sc|Ci fib]
+5.4 -5 47 +5  1004.8  -0.8  741  293           
15 17.04.18 тихо ()   20000 м    3/3 1000 м 
[Sc]
-0.8 -5 73 -1  1003.7  -0.7  740  300           
18 17.04.18 110 (В) 20000 м    10/5 1000 м верхняя 
[Sc|Ci fib]
-1.1 -3.7 82 -1  1002.1  -1.6  739  299           
21 17.04.18 100 (В) 20000 м    10/5 1000 м средняя 
[Sc|As trans]
+0.1 -1.6 88 +1  1000.1  -1.9  737  297           
03 18.04.18 190 (Ю) 20000 м    10/3 1000 м верхняя 
[Sc|Cs]
+9 -0.7 51 +8  995.8  -1.5  735  287           
06 18.04.18 230 (ЮЗ) 4{11}  20000 м    10/4 600 м кучево-дожд., средняя 
[Cb cap|Ac trans]
+6.3 -1.1 59 +5  997.2  1.2  735  290           
09 18.04.18 190 (Ю) 20000 м    10/0 средняя 
[Ac trans]
+5.6 -1.7 59 +5  997.1  -0.1  735  291           
15 18.04.18 220 (ЮЗ) 20000 м  {ливн. осадки}  10/5 600 м кучево-дожд., средняя 
[Cb cap|Ac trans]
-1.4 -2.2 94 -1  1000  2.1  737  299           
18 18.04.18 200 (Ю) 20000 м    8/0 средняя 
[Ac trans]
-3 -4 93 -4  1001.5  1.2  738  301           
21 18.04.18 200 (Ю) 20000 м    6/0 средняя 
[Ac trans]
-5.4 -6.8 90 -8  1002.3  0.7  739  304           
03 19.04.18 230 (ЮЗ) 5{11}  20000 м    10/5 600 м верхняя 
[Cu hum|Ci fib]
+0.4 -6.6 59 -3  1004.1  1.2  740  299           
06 19.04.18 220 (ЮЗ) 6{13}  20000 м    3/3 600 м 
[Cu hum]
+2.1 -10 40 -1  1005.6  1.5  741  297           
09 19.04.18 220 (ЮЗ) 6{14}  20000 м    ясно 
+2.6 -11.8 34 1007  1.4  743  297           
15 19.04.18 250 (З) 20000 м    ясно 
-2.3 -10 55 -3  1010.7  1.8  745  304           
18 19.04.18 220 (ЮЗ) 20000 м    ясно 
-4.3 -9 70 -4  1012.5  1.6  746  306           
21 19.04.18 210 (ЮЗ) 20000 м    3/0 средняя 
[Ac trans]
-6.9 -11.1 72 -7  1013.5  0.8  747  310           
Время (UTC), дата Ветер
(°,м/с) 
Видим.   Явления Облачность Т
(°С)
Тd
(°С)
f(%) Тe
(°С)
Pmin
(гПа)
dP
(гПа)
Po
(мм)
O2
(г/м3)
Тmin Tmax R s Состояние
почвы

Для получения пояснительной информации подведите курсор к названию столбца.

ПОГОДА в Сунтаре - архив

Всё, что Вы хотите узнать о погоде в Сунтаре - удобно и подробно!

Выберите нужную дату (начиная с 1 января 2015* года) и нажмите кнопку "Найти".
Будут отображены архивные сводки погоды по пункту Сунтар, начиная с указанной даты.


Отображать данные в формате CSV (для использования в таблицах Excel)


Внимание! Наш архив погоды предназначен исключительно для личного некоммерческого использования в познавательных целях. Если Вам необходимы официальные справки о состоянии погоды (для производственных, юридических, коммерческих и т.п. целей), обращайтесь в органы Росгидромета.

*Примечание: данная дата относится к архиву по метеостанциям СССР (Россия, СНГ, Балтия).
Архив по метеостанциям Зарубежной Европы и Азии (кроме Китая) хранится 10 дней, по другим регионам земного шара (Китай, Африка, Америка, Австралия, Океания) - 1 день.

Сунтар - район местоположения метеостанции


Название, широта, долгота, высота метеостанции:
Сунтар 62.2°ш. 117.6°д. 133 м над ур. моря [Российская Федерация]

Дополнительная информация

В oтличие oт бoльшинства пoгoдных сайтoв мы публикуем пoдрoбную метеoинфoрмацию в детальнoм прoфессиoнальнoм фoрмате.

Характеристики температуры и влажнoсти вoздуха измеряются на высoте 2 м в тени вдали oт зданий и деревьев.
Скoрoсть ветра измеряется на высoте 10 м (на урoвне рoста челoвека скoрoсть ветра ниже в 1.5-2 раза). Если метеoстанция нахoдится в гoрoде или в лесу, тo скoрoсть ветра занижена на 2-4 м/с пo сравнению с oткрытым местoм. Скoрoсть ветра над акватoриями крупных рек и oзёр, а также на вершинах хoлмoв на 2-5 м/с выше, чем в oбычных услoвиях.
Атмoсфернoе давление в разных тoчках местнoсти мoжет значительнo oтличаться oт давления на метеoстанции, в зависимoсти oт услoвий рельефа (при пoдъёме на 10 м давление пoнижается примернo на 1 мм рт.ст.).